Regional Weather Roundup
Issued by NWS

Home | Current Version | Previous Version | Text Only | Print | Product List | Glossary Off
Versions: 1 2 3 4 5 6 7 8 9 10 11 12 13 14 15 16 17 18 19 20 21 22 23 24 25 26 27 28 29 30 31 32 33 34 35 36 37 38 39 40 41 42 43 44 45 46 47 48 49 50

000
ASUS45 KBOU 200407
RWRCO

WEATHER ROUNDUP FOR COLORADO
NATIONAL WEATHER SERVICE DENVER/BOULDER CO
900 PM MST FRI DEC 19 2014

NOTE: "FAIR" INDICATES FEW OR NO CLOUDS BELOW 12000 FEET WITH NO
SIGNIFICANT WEATHER AND/OR OBSTRUCTIONS TO VISIBILITY.

COZ001>005-013-030-031-200500-
...NORTHWEST COLORADO...

CITY           SKY/WX    TMP DP  RH WIND       PRES   REMARKS
CRAIG          MOCLDY    13  11  92 SW3       30.18S
HAYDEN         MOCLDY    18  12  79 E9        30.17S WCI   6
MEEKER         MOCLDY    12   9  87 NE6       30.18S WCI   3
MOUNT WERNER   NOT AVBL
STEAMBOAT SPGS CLOUDY    16  14  91 E3        30.17F
WALDEN         PTCLDY    18  10  73 SE8       30.13R WCI   7
$$

COZ006>008-011-200500-
...WEST CENTRAL VALLEYS...

CITY           SKY/WX    TMP DP  RH WIND       PRES   REMARKS
GRAND JUNCTION CLEAR     28  27  96 E3        30.21S
MONTROSE       PTCLDY    28  24  85 SE5       30.23R WCI  23
EAGLE          CLEAR     19  18  93 CALM      30.22S
RIFLE          PTCLDY    28  23  81 CALM      30.22R
DELTA          PTCLDY    32  27  80 W3        30.22F
NUCLA          PTCLDY    30  27  86 E8        30.24F WCI  23
$$

COZ017>023-064>068-200500-
...SOUTHWEST COLORADO...

CITY           SKY/WX    TMP DP  RH WIND       PRES   REMARKS
DURANGO        PTCLDY    26  23  88 CALM      30.18S
CORTEZ         CLEAR     26  24  92 NE7       30.21S WCI  18
PAGOSA SPRINGS PTCLDY    22  20  92 CALM      30.18R
TELLURIDE      CLEAR     19  15  84 E6        30.19F WCI  11
WOLF CREEK PAS MOCLDY    21   1  42 MISG      30.15F
$$

COZ009-010-012-014-032>034-037-058>063-200500-
...CENTRAL COLORADO...

CITY           SKY/WX    TMP DP  RH WIND       PRES   REMARKS
ASPEN          MOCLDY    17  11  77 SW7       30.16F WCI   8
BUENA VISTA    PTCLDY    22   9  58 W9        30.14R WCI  11
COPPER MTN     PTCLDY    14   9  79 SW12G18   30.12F WCI   0
BERTHOUD PASS  CLOUDY     7   1  78 MISG      30.07S
COTTONWOOD PAS PTCLDY    27  10  50 CALM      30.12S
GUNNISON       MOCLDY    16   9  73 CALM      30.22R
KREMMLING      PTCLDY    10   7  85 SE6       30.18F WCI   1
LEADVILLE      PTCLDY    10   3  73 NE8       30.12F WCI  -2
MONARCH PASS   CLOUDY    10   7  85 MISG      30.22S
SALIDA         PTCLDY    29  13  51 N8        30.20S WCI  21
SUNLIGHT       PTCLDY   N/A N/A N/A CALM      30.17R
WILKERSON PASS PTCLDY    21   9  58 N13G23    30.11R WCI   9
$$

COZ069>075-200500-
...SAN LUIS VALLEY/SANGRE DE CRISTO MOUNTAINS...

CITY           SKY/WX    TMP DP  RH WIND       PRES   REMARKS
ALAMOSA        MOCLDY    19  12  74 SW5       30.16S WCI  12
LA VETA PASS   PTCLDY    18  10  73 MISG      30.08S
SAGUACHE       MOCLDY    25  12  58 NW10      30.17S WCI  15
$$

COZ035-036-038>040-200500-
...NORTHERN COLORADO FRONT RANGE...

CITY           SKY/WX    TMP DP  RH WIND       PRES   REMARKS
DENVER INTL AP MOCLDY    33  15  47 SW10      30.01S WCI  25
DMNS CITY PARK   N/A     34  15  45 S6G12     30.00F WCI  29
AURORA         MOCLDY    30  17  57 S9        30.02S WCI  21
FRONT RANGE AP MOCLDY    30  21  69 S8        30.02  WCI  23
ERIE MUNI ARPT   N/A     26  16  67 CALM      30.01S
BOULDER MUN AP MOCLDY    36  14  41 SW3       29.99F
CENTENNIAL     CLOUDY    31  17  56 S5        30.02S WCI  26
BROOMFIELD     PTCLDY   N/A N/A N/A MISG        N/A
FORT COLLINS   PTCLDY    30  16  55 CALM      30.01F
LONGMONT       PTCLDY    30  17  60 W3        30.02F
$$

COZ041-046-047-076>085-087-088-200500-
...PIKES PEAK/PALMER DIVIDE AND SOUTHERN FOOTHILLS...

CITY           SKY/WX    TMP DP  RH WIND       PRES   REMARKS
COLO. SPRINGS  MOCLDY    26  15  63 NE3       30.06S
A. F. ACADEMY  PTCLDY    21  13  70 N8        30.05S WCI  11
ELLICOTT       NOT AVBL
FALCON         PTCLDY    24  18  76 W3        30.06S
FORT CARSON    PTCLDY    33  18  53 NW5       30.05S WCI  29
LIMON          MOCLDY    23  20  88 CALM      30.05S
MONUMENT HILL  CLOUDY    27  16  63 SW6       30.03S WCI  20
TRINIDAD       CLEAR     26  17  68 SW9       30.06F WCI  17
$$

COZ042>045-048>051-090-091-200500-
...NORTHEAST COLORADO...

CITY           SKY/WX    TMP DP  RH WIND       PRES   REMARKS
GREELEY ARPT   PTCLDY    19   9  63 N3        30.00S
AKRON          MOCLDY    30  22  72 S12       30.02S WCI  20
BURLINGTON     CLEAR     29  25  85 SW8       30.05F WCI  21
WRAY           CLEAR     30  25  81 W8        30.04S WCI  22
STERLING       FOG       18  16  93 CALM      30.02F VSB 1/2
HOLYOKE        CLEAR     27  21  80 W6        30.03S WCI  20
FORT MORGAN    MOCLDY    27  20  73 W7        30.03S WCI  20
$$

COZ086-089-092>099-200500-
...SOUTHEAST COLORADO...

CITY           SKY/WX    TMP DP  RH WIND       PRES   REMARKS
PUEBLO         PTCLDY    26  20  77 N8        30.05S WCI  18
LA JUNTA       CLEAR     27  23  85 W5        30.06S WCI  22
LAMAR          CLEAR     23  21  92 SW3       30.06R
SPRINGFIELD      N/A     25  22  88 SW3       30.06F
$$


USA.gov is the U.S. government's official web portal to all federal, state and local government web resources and services.